Weather History for Air Force Academy, CO

Change the Weather History Date:

Thursday, March 28, 2013

  Actual Average Record
Temperature  
Mean Temperature 42 °F -  
Max Temperature 61 °F 51 °F 71 °F (2012)
Min Temperature 25 °F 27 °F 12 °F (2009)
Degree Days  
Heating Degree Days 22    
Moisture  
Dew Point 24 °F    
Average Humidity 55    
Maximum Humidity 90    
Minimum Humidity 16    
Precipitation  
Precipitation 0.00 in - - ()
Sea Level Pressure  
Sea Level Pressure 30.09 in    
Wind  
Wind Speed 5 mph (NNW)    
Max Wind Speed 18 mph    
Max Gust Speed 24 mph    
Visibility 10 miles    
Events      
Averages and records for this station are not official NWS values.
T = Trace of Precipitation, MM = Missing Value Source: NWS Daily Summary

Daily Weather History Graph

Daily Weather History Graph

Search for Another Location

Airport:

Trip Planner

Search our weather history database for the weather conditions in past years. The results will help you decide how hot, cold, wet, or windy it might be!

Date:

Astronomy

Mar. 28, 2013 Rise Set
Actual Time 6:49 AM MDT 7:19 PM MDT
Civil Twilight 6:22 AM MDT 7:46 PM MDT
Nautical Twilight 5:51 AM MDT 8:17 PM MDT
Astronomical Twilight 5:19 AM MDT 8:50 PM MDT
Moon 9:12 PM MDT (3/28) 7:20 AM MDT (3/28)
Length of Visible Light 13h 23m
Length of Day
12h 29m
Full, 98% of the Moon is Illuminated
Mar 28
Full
Apr 2
Last Quarter
Apr 10
New
Apr 18
First Quarter
Apr 25
Full

Hourly Weather History & Observations

Time (MDT) Temp. Windchill Dew Point Humidity Pressure Visibility Wind Dir Wind Speed Gust Speed Precip Events Conditions
12:58 AM 35.2 °F 29.5 °F 27.7 °F 74% 30.15 in 10.0 mi South 6.9 mph - N/A   Clear
1:58 AM 34.3 °F - 27.0 °F 74% 30.15 in 10.0 mi Calm Calm - N/A   Clear
2:58 AM 26.8 °F - 23.9 °F 89% 30.13 in 10.0 mi North 2.3 mph - N/A   Clear
3:58 AM 26.1 °F 18.4 °F 23.5 °F 90% 30.12 in 10.0 mi North 6.9 mph - N/A   Clear
4:58 AM 25.3 °F 18.5 °F 22.5 °F 89% 30.10 in 10.0 mi NNW 5.8 mph - N/A   Clear
5:58 AM 25.7 °F 17.1 °F 23.0 °F 89% 30.09 in 10.0 mi North 8.1 mph - N/A   Clear
6:58 AM 27.3 °F 19.1 °F 24.4 °F 89% 30.12 in 10.0 mi North 8.1 mph - N/A   Clear
7:58 AM 31.3 °F 25.6 °F 27.1 °F 85% 30.11 in 10.0 mi North 5.8 mph - N/A   Clear
8:58 AM 36.1 °F - 29.8 °F 78% 30.11 in 10.0 mi Calm Calm - N/A   Clear
9:58 AM 43.0 °F - 27.1 °F 54% 30.10 in 10.0 mi SW 1.2 mph - N/A   Clear
10:58 AM 49.3 °F - 24.4 °F 38% 30.07 in 10.0 mi SSE 4.6 mph - N/A   Partly Cloudy
11:58 AM 58.8 °F - 16.9 °F 19% 30.01 in 10.0 mi South 5.8 mph - N/A   Partly Cloudy
12:58 PM 60.1 °F - 14.0 °F 16% 30.00 in 10.0 mi NW 4.6 mph - N/A   Partly Cloudy
1:58 PM 57.4 °F - 16.0 °F 20% 30.01 in 10.0 mi NE 5.8 mph - N/A   Clear
2:58 PM 55.8 °F - 19.8 °F 25% 30.06 in 10.0 mi NNE 10.4 mph - N/A   Partly Cloudy
3:58 PM 55.2 °F - 22.5 °F 28% 30.07 in 10.0 mi Variable 4.6 mph - N/A   Clear
4:58 PM 55.6 °F - 23.4 °F 29% 30.08 in 10.0 mi WNW 6.9 mph - N/A   Partly Cloudy
5:58 PM 55.4 °F - 21.9 °F 27% 30.08 in 10.0 mi Variable 1.2 mph - N/A   Clear
6:58 PM 52.7 °F - 25.0 °F 34% 30.12 in 10.0 mi SW 18.4 mph 24.2 mph N/A   Partly Cloudy
7:58 PM 48.6 °F - 29.8 °F 48% 30.13 in 10.0 mi West 5.8 mph - N/A   Partly Cloudy
8:58 PM 48.4 °F - 27.0 °F 43% 30.12 in 10.0 mi South 9.2 mph - N/A   Partly Cloudy
9:58 PM 46.6 °F - 26.2 °F 45% 30.11 in 10.0 mi SSE 3.5 mph - N/A   Partly Cloudy
10:58 PM 42.3 °F 37.9 °F 26.6 °F 54% 30.09 in 10.0 mi ESE 6.9 mph - N/A   Clear
11:58 PM 34.7 °F 31.8 °F 26.1 °F 71% 30.09 in 10.0 mi North 3.5 mph - N/A   Clear